START_TIME,STEP,MOV.,M15,t_acc.,M20,t_acc.
1979-07-20 00:00:43.710 ,0,0,0.,24.0,0.,24.0
1979-07-20 00:01:07.710 ,1,1,0.,24.0,0.,24.0
1979-07-20 00:01:31.710 ,1,0,0.,24.0,0.,24.0
1979-07-20 00:01:55.710 ,2,1,0.,24.0,0.,24.0
1979-07-20 00:02:19.710 ,2,0,0.,24.0,0.,24.0
1979-07-20 00:02:43.710 ,3,1,0.,24.0,0.,24.0
1979-07-20 00:03:07.710 ,3,0,0.,24.0,0.,24.0
1979-07-20 00:03:31.710 ,4,1,0.,24.0,0.,24.0
1979-07-20 00:03:55.710 ,4,0,0.,24.0,0.,24.0
1979-07-20 00:04:19.710 ,5,1,0.,24.0,0.,24.0
1979-07-20 00:04:43.710 ,5,0,0.,24.0,0.,24.0
1979-07-20 00:05:07.710 ,6,1,0.,24.0,0.,24.0
1979-07-20 00:05:31.710 ,6,0,0.,24.0,0.,24.0
1979-07-20 00:05:55.710 ,7,1,0.,24.0,0.,24.0
1979-07-20 00:06:19.710 ,7,0,0.,24.0,0.,24.0
1979-07-20 00:06:43.710 ,7,1,0.,24.0,0.,24.0
1979-07-20 00:07:07.710 ,7,0,0.,24.0,0.,24.0
1979-07-20 00:07:31.710 ,6,1,0.,24.0,0.,24.0
1979-07-20 00:07:55.710 ,6,0,0.,24.0,0.,24.0
1979-07-20 00:08:19.710 ,5,1,0.,24.0,0.,24.0
1979-07-20 00:08:43.710 ,5,0,0.,24.0,0.,24.0
1979-07-20 00:09:07.710 ,4,1,0.,24.0,0.,24.0
1979-07-20 00:09:31.710 ,4,0,0.,24.0,0.,24.0
1979-07-20 00:09:55.710 ,3,1,0.,24.0,0.,24.0
1979-07-20 00:10:19.710 ,3,0,0.,24.0,0.,24.0
1979-07-20 00:10:43.710 ,2,1,0.,24.0,0.,24.0
1979-07-20 00:11:07.710 ,2,0,0.,24.0,0.,24.0
1979-07-20 00:11:31.710 ,1,1,0.,24.0,0.,24.0
1979-07-20 00:11:55.710 ,1,0,0.,24.0,0.,24.0
1979-07-20 00:12:19.710 ,0,1,0.,24.0,0.,24.0
1979-07-20 00:12:43.710 ,0,0,0.,24.0,0.,24.0
1979-07-20 00:13:07.710 ,0,1,0.,24.0,0.,24.0
1979-07-20 00:13:31.710 ,0,0,0.,24.0,0.,24.0
1979-07-20 00:13:55.710 ,1,1,0.,24.0,0.,24.0
1979-07-20 00:14:19.710 ,1,0,0.,24.0,0.,24.0
1979-07-20 00:14:43.710 ,2,1,0.,24.0,0.,24.0
1979-07-20 00:15:07.710 ,2,0,0.,24.0,0.,24.0
1979-07-20 00:15:31.710 ,3,1,0.,24.0,0.,24.0
1979-07-20 00:15:55.710 ,3,0,0.,24.0,0.,24.0
1979-07-20 00:16:19.710 ,4,1,0.,24.0,0.,24.0
1979-07-20 00:16:43.710 ,4,0,0.,24.0,0.,24.0
1979-07-20 00:17:07.710 ,5,1,0.,24.0,0.,24.0
1979-07-20 00:17:31.710 ,5,0,0.,24.0,0.,24.0
1979-07-20 00:17:55.710 ,6,1,0.,24.0,0.,24.0
1979-07-20 00:18:19.710 ,6,0,0.,24.0,0.,24.0
1979-07-20 00:18:43.710 ,7,0,0.,24.0,0.,24.0
1979-07-20 00:19:07.710 ,7,0,0.,24.0,0.,24.0
1979-07-20 00:19:31.710 ,3,1,0.,24.0,0.,24.0
1979-07-20 00:19:55.710 ,0,1,0.,24.0,0.,24.0
1979-07-20 00:20:19.710 ,4,1,0.,24.0,0.,24.0
1979-07-20 00:20:43.710 ,7,1,0.,24.0,0.,24.0
1979-07-20 00:21:07.710 ,3,1,0.,24.0,0.,24.0
1979-07-20 00:21:31.710 ,0,1,0.,24.0,0.,24.0
1979-07-20 00:21:55.710 ,4,1,0.,24.0,0.,24.0
1979-07-20 00:22:19.710 ,7,1,0.,24.0,0.,24.0
1979-07-20 00:22:43.710 ,3,1,0.,24.0,0.,24.0
1979-07-20 00:23:07.710 ,0,1,0.,24.0,0.,24.0
1979-07-20 00:23:31.710 ,4,1,0.,24.0,0.,24.0
1979-07-20 00:23:55.710 ,7,1,0.,24.0,0.,24.0
1979-07-20 00:24:19.710 ,3,1,0.,24.0,0.,24.0
1979-07-20 00:24:43.710 ,0,1,0.,24.0,0.,24.0
1979-07-20 00:25:07.710 ,4,1,0.,24.0,0.,24.0
1979-07-20 00:25:31.710 ,7,1,0.,24.0,0.,24.0
1979-07-20 00:25:55.710 ,3,1,0.,24.0,0.,24.0
1979-07-20 00:26:19.710 ,0,1,0.,24.0,0.,24.0
1979-07-20 00:26:43.710 ,4,1,0.,24.0,0.,24.0
1979-07-20 00:27:07.710 ,7,1,0.,24.0,0.,24.0
1979-07-20 00:27:31.710 ,3,1,0.,24.0,0.,24.0
1979-07-20 00:27:55.710 ,0,1,0.,24.0,0.,24.0
1979-07-20 00:28:19.710 ,4,1,0.,24.0,0.,24.0
1979-07-20 00:28:43.710 ,7,1,0.,24.0,0.,24.0
1979-07-20 00:29:07.710 ,3,1,0.,24.0,0.,24.0
1979-07-20 00:29:31.710 ,0,1,0.,24.0,0.,24.0
1979-07-20 00:29:55.710 ,0,0,0.,24.0,0.,24.0
1979-07-20 00:30:19.710 ,0,0,0.,24.0,0.,24.0
1979-07-20 00:30:43.710 ,5,1,0.,24.0,0.,24.0
1979-07-20 00:31:07.710 ,5,0,0.,24.0,0.,24.0
1979-07-20 00:31:31.710 ,4,1,0.,24.0,0.,24.0
1979-07-20 00:31:55.710 ,4,0,0.,24.0,0.,24.0
1979-07-20 00:32:19.710 ,3,1,0.,24.0,0.,24.0
1979-07-20 00:32:43.710 ,3,0,0.,24.0,0.,24.0
1979-07-20 00:33:07.710 ,2,1,0.,24.0,0.,24.0
1979-07-20 00:33:31.710 ,2,0,0.,24.0,0.,24.0
1979-07-20 00:33:55.710 ,1,1,0.,24.0,0.,24.0
1979-07-20 00:34:19.710 ,1,0,0.,24.0,0.,24.0
1979-07-20 00:34:43.710 ,0,1,0.,24.0,0.,24.0
1979-07-20 00:35:07.710 ,0,0,1.,24.0,0.,24.0
1979-07-20 00:35:31.710 ,0,1,0.,24.0,0.,24.0
1979-07-20 00:35:55.710 ,0,0,0.,24.0,0.,24.0
1979-07-20 00:36:19.710 ,1,1,0.,24.0,0.,24.0
1979-07-20 00:36:43.710 ,1,0,0.,24.0,0.,24.0
1979-07-20 00:37:07.710 ,2,1,0.,24.0,0.,24.0
1979-07-20 00:37:31.710 ,2,0,0.,24.0,0.,24.0
1979-07-20 00:37:55.710 ,3,1,0.,24.0,0.,24.0
1979-07-20 00:38:19.710 ,3,0,0.,24.0,0.,24.0
1979-07-20 00:38:43.710 ,4,1,0.,24.0,0.,24.0
1979-07-20 00:39:07.710 ,4,0,0.,24.0,0.,24.0
1979-07-20 00:39:31.710 ,5,1,0.,24.0,0.,24.0
1979-07-20 00:39:55.710 ,5,0,0.,24.0,0.,24.0
1979-07-20 00:40:19.710 ,6,1,0.,24.0,0.,24.0
1979-07-20 00:40:43.710 ,6,0,0.,24.0,0.,24.0
1979-07-20 00:41:07.710 ,7,1,0.,24.0,0.,24.0
1979-07-20 00:41:31.710 ,7,0,0.,24.0,0.,24.0
1979-07-20 00:41:55.710 ,7,1,0.,24.0,0.,24.0
1979-07-20 00:42:19.710 ,7,0,0.,24.0,0.,24.0
1979-07-20 00:42:43.710 ,6,1,0.,24.0,0.,24.0
1979-07-20 00:43:07.710 ,6,0,0.,24.0,0.,24.0
1979-07-20 00:43:31.710 ,5,1,0.,24.0,0.,24.0
1979-07-20 00:43:55.710 ,5,0,0.,24.0,0.,24.0
1979-07-20 00:44:19.710 ,4,1,0.,24.0,0.,24.0
1979-07-20 00:44:43.710 ,4,0,0.,24.0,0.,24.0
1979-07-20 00:45:07.710 ,3,1,0.,24.0,0.,24.0
1979-07-20 00:45:31.710 ,3,0,0.,24.0,0.,24.0
1979-07-20 00:45:55.710 ,2,1,0.,24.0,0.,24.0
1979-07-20 00:46:19.710 ,2,0,0.,24.0,0.,24.0
1979-07-20 00:46:43.710 ,1,1,0.,24.0,0.,24.0
1979-07-20 00:47:07.710 ,1,0,0.,24.0,0.,24.0
1979-07-20 00:47:31.710 ,0,1,0.,24.0,0.,24.0
1979-07-20 00:47:55.710 ,0,0,0.,24.0,0.,24.0
1979-07-20 00:48:19.710 ,0,1,0.,24.0,0.,24.0
1979-07-20 00:48:43.710 ,0,0,0.,24.0,0.,24.0
1979-07-20 00:49:07.710 ,1,1,0.,24.0,0.,24.0
1979-07-20 00:49:31.710 ,1,0,0.,24.0,0.,24.0
1979-07-20 00:49:55.710 ,2,1,0.,24.0,0.,24.0
1979-07-20 00:50:19.710 ,2,0,0.,24.0,0.,24.0
1979-07-20 00:50:43.710 ,3,1,0.,24.0,0.,24.0
1979-07-20 00:51:07.710 ,3,0,0.,24.0,0.,24.0
1979-07-20 00:51:31.710 ,4,1,0.,24.0,0.,24.0
1979-07-20 00:51:55.710 ,4,0,0.,24.0,0.,24.0
1979-07-20 00:52:19.710 ,5,1,0.,24.0,0.,24.0
1979-07-20 00:52:43.710 ,5,0,1.,24.0,0.,24.0
1979-07-20 00:53:07.710 ,6,1,0.,24.0,0.,24.0
1979-07-20 00:53:31.710 ,6,0,0.,24.0,0.,24.0
1979-07-20 00:53:55.710 ,7,1,0.,24.0,0.,24.0
1979-07-20 00:54:19.710 ,7,0,0.,24.0,0.,24.0
1979-07-20 00:54:43.710 ,7,1,0.,24.0,0.,24.0
1979-07-20 00:55:07.710 ,7,0,0.,24.0,0.,24.0
1979-07-20 00:55:31.710 ,6,1,0.,24.0,0.,24.0
1979-07-20 00:55:55.710 ,6,0,0.,24.0,0.,24.0
1979-07-20 00:56:19.710 ,5,1,0.,24.0,0.,24.0
1979-07-20 00:56:43.710 ,5,0,0.,24.0,0.,24.0
1979-07-20 00:57:07.710 ,4,1,0.,24.0,0.,24.0
1979-07-20 00:57:31.710 ,4,0,0.,24.0,0.,24.0
1979-07-20 00:57:55.710 ,3,1,0.,24.0,0.,24.0
1979-07-20 00:58:19.710 ,3,0,0.,24.0,0.,24.0
1979-07-20 00:58:43.710 ,2,1,0.,24.0,0.,24.0
1979-07-20 00:59:07.710 ,2,0,0.,24.0,0.,24.0
1979-07-20 00:59:31.710 ,1,1,0.,24.0,0.,24.0
1979-07-20 00:59:55.710 ,1,0,0.,24.0,0.,24.0
1979-07-20 01:00:19.710 ,0,1,0.,24.0,0.,24.0
1979-07-20 01:00:43.710 ,0,0,0.,24.0,0.,24.0
1979-07-20 01:01:07.710 ,0,1,0.,24.0,0.,24.0
1979-07-20 01:01:31.710 ,0,0,0.,24.0,0.,24.0
1979-07-20 01:01:55.710 ,1,1,0.,24.0,0.,24.0
1979-07-20 01:02:19.710 ,1,0,0.,24.0,0.,24.0
1979-07-20 01:02:43.710 ,2,1,0.,24.0,0.,24.0
1979-07-20 01:03:07.710 ,2,0,0.,24.0,0.,24.0
1979-07-20 01:03:31.710 ,3,1,0.,24.0,0.,24.0
1979-07-20 01:03:55.710 ,3,0,0.,24.0,0.,24.0
1979-07-20 01:04:19.710 ,4,1,0.,24.0,0.,24.0
1979-07-20 01:04:43.710 ,4,0,0.,24.0,0.,24.0
1979-07-20 01:05:07.710 ,5,1,0.,24.0,0.,24.0
1979-07-20 01:05:31.710 ,5,0,0.,24.0,0.,24.0
1979-07-20 01:05:55.710 ,6,1,0.,24.0,0.,24.0
1979-07-20 01:06:19.710 ,6,0,0.,24.0,0.,24.0
1979-07-20 01:06:43.710 ,7,0,0.,24.0,0.,24.0
1979-07-20 01:07:07.710 ,7,0,0.,24.0,0.,24.0
1979-07-20 01:07:31.710 ,3,1,0.,24.0,0.,24.0
1979-07-20 01:07:55.710 ,0,1,0.,24.0,0.,24.0
1979-07-20 01:08:19.710 ,4,1,0.,24.0,0.,24.0
1979-07-20 01:08:43.710 ,7,1,0.,24.0,0.,24.0
1979-07-20 01:09:07.710 ,3,1,0.,24.0,0.,24.0
1979-07-20 01:09:31.710 ,0,1,0.,24.0,0.,24.0
1979-07-20 01:09:55.710 ,4,1,0.,24.0,0.,24.0
1979-07-20 01:10:19.710 ,7,1,0.,24.0,0.,24.0
1979-07-20 01:10:43.710 ,3,1,1.,24.0,0.,24.0
1979-07-20 01:11:07.710 ,0,1,0.,24.0,0.,24.0
1979-07-20 01:11:31.710 ,4,1,0.,24.0,0.,24.0
1979-07-20 01:11:55.710 ,7,1,0.,24.0,0.,24.0
1979-07-20 01:12:19.710 ,3,1,0.,24.0,0.,24.0
1979-07-20 01:12:43.710 ,0,1,0.,24.0,0.,24.0
1979-07-20 01:13:07.710 ,4,1,0.,24.0,0.,24.0
1979-07-20 01:13:31.710 ,7,1,0.,24.0,0.,24.0
1979-07-20 01:13:55.710 ,3,1,0.,24.0,0.,24.0
1979-07-20 01:14:19.710 ,0,1,0.,24.0,0.,24.0
1979-07-20 01:14:43.710 ,4,1,0.,24.0,0.,24.0
1979-07-20 01:15:07.710 ,7,1,0.,24.0,0.,24.0
1979-07-20 01:15:31.710 ,3,1,0.,24.0,0.,24.0
1979-07-20 01:15:55.710 ,0,1,0.,24.0,0.,24.0
1979-07-20 01:16:19.710 ,4,1,0.,24.0,0.,24.0
1979-07-20 01:16:43.710 ,7,1,0.,24.0,0.,24.0
1979-07-20 01:17:07.710 ,3,1,0.,24.0,0.,24.0
1979-07-20 01:17:31.710 ,0,1,0.,24.0,0.,24.0
1979-07-20 01:17:55.710 ,0,0,0.,24.0,0.,24.0
1979-07-20 01:18:19.710 ,0,0,0.,24.0,0.,24.0
1979-07-20 01:19:31.710 ,0,0,0.,24.0,0.,24.0
1979-07-20 01:19:55.710 ,0,0,0.,24.0,0.,24.0
1979-07-20 01:20:19.710 ,3,1,0.,24.0,0.,24.0
1979-07-20 01:20:43.710 ,3,0,0.,24.0,0.,24.0
1979-07-20 01:21:07.710 ,2,1,0.,24.0,0.,24.0
1979-07-20 01:21:31.710 ,2,0,0.,24.0,0.,24.0
1979-07-20 01:21:55.710 ,1,1,0.,24.0,0.,24.0
1979-07-20 01:22:19.710 ,1,0,0.,24.0,0.,24.0
1979-07-20 01:22:43.710 ,0,1,0.,24.0,0.,24.0
1979-07-20 01:23:07.710 ,0,0,0.,24.0,0.,24.0
1979-07-20 01:23:31.710 ,0,1,0.,24.0,0.,24.0
1979-07-20 01:23:55.710 ,0,0,0.,24.0,0.,24.0
1979-07-20 01:24:19.710 ,1,1,0.,24.0,0.,24.0
1979-07-20 01:24:43.710 ,1,0,0.,24.0,0.,24.0
1979-07-20 01:25:07.710 ,2,1,0.,24.0,0.,24.0
1979-07-20 01:25:31.710 ,2,0,0.,24.0,0.,24.0
1979-07-20 01:25:55.710 ,3,1,0.,24.0,0.,24.0
1979-07-20 01:26:19.710 ,3,0,0.,24.0,0.,24.0
1979-07-20 01:26:43.710 ,4,1,0.,24.0,0.,24.0
1979-07-20 01:27:07.710 ,4,0,0.,24.0,0.,24.0
1979-07-20 01:27:31.710 ,5,1,0.,24.0,0.,24.0
1979-07-20 01:27:55.710 ,5,0,0.,24.0,0.,24.0
1979-07-20 01:28:19.710 ,6,1,0.,24.0,0.,24.0
1979-07-20 01:28:43.710 ,6,0,0.,24.0,0.,24.0
1979-07-20 01:29:07.710 ,7,1,0.,24.0,0.,24.0
1979-07-20 01:29:31.710 ,7,0,0.,24.0,0.,24.0
1979-07-20 01:29:55.710 ,7,1,0.,24.0,0.,24.0
1979-07-20 01:30:19.710 ,7,0,0.,24.0,0.,24.0
1979-07-20 01:30:43.710 ,6,1,0.,24.0,1.,24.0
1979-07-20 01:31:07.710 ,6,0,0.,24.0,0.,24.0
1979-07-20 01:31:31.710 ,5,1,0.,24.0,0.,24.0
1979-07-20 01:31:55.710 ,5,0,0.,24.0,0.,24.0
1979-07-20 01:32:19.710 ,4,1,0.,24.0,0.,24.0
1979-07-20 01:32:43.710 ,4,0,0.,24.0,0.,24.0
1979-07-20 01:33:07.710 ,3,1,0.,24.0,0.,24.0
1979-07-20 01:33:31.710 ,3,0,0.,24.0,0.,24.0
1979-07-20 01:33:55.710 ,2,1,0.,24.0,0.,24.0
1979-07-20 01:34:19.710 ,2,0,0.,24.0,0.,24.0
1979-07-20 01:34:43.710 ,1,1,0.,24.0,0.,24.0
1979-07-20 01:35:07.710 ,1,0,0.,24.0,0.,24.0
1979-07-20 01:35:31.710 ,0,1,0.,24.0,0.,24.0
1979-07-20 01:35:55.710 ,0,0,0.,24.0,0.,24.0
1979-07-20 01:36:19.710 ,0,1,0.,24.0,0.,24.0
1979-07-20 01:36:43.710 ,0,0,0.,24.0,0.,24.0
1979-07-20 01:37:07.710 ,1,1,0.,24.0,0.,24.0
1979-07-20 01:37:31.710 ,1,0,0.,24.0,0.,24.0
1979-07-20 01:37:55.710 ,2,1,0.,24.0,0.,24.0
1979-07-20 01:38:19.710 ,2,0,0.,24.0,0.,24.0
1979-07-20 01:38:43.710 ,3,1,0.,24.0,0.,24.0
1979-07-20 01:39:07.710 ,3,0,0.,24.0,0.,24.0
1979-07-20 01:39:31.710 ,4,1,0.,24.0,0.,24.0
1979-07-20 01:39:55.710 ,4,0,0.,24.0,0.,24.0
1979-07-20 01:40:19.710 ,5,1,0.,24.0,0.,24.0
1979-07-20 01:40:43.710 ,5,0,0.,24.0,0.,24.0
1979-07-20 01:41:07.710 ,6,1,0.,24.0,0.,24.0
1979-07-20 01:41:31.710 ,6,0,0.,24.0,0.,24.0
1979-07-20 01:41:55.710 ,7,1,0.,24.0,0.,24.0
1979-07-20 01:42:19.710 ,7,0,0.,24.0,0.,24.0
1979-07-20 01:42:43.710 ,7,1,0.,24.0,0.,24.0
1979-07-20 01:43:07.710 ,7,0,0.,24.0,0.,24.0
1979-07-20 01:43:31.710 ,6,1,0.,24.0,0.,24.0
1979-07-20 01:43:55.710 ,6,0,0.,24.0,0.,24.0
1979-07-20 01:44:19.710 ,5,1,0.,24.0,0.,24.0
1979-07-20 01:44:43.710 ,5,0,0.,24.0,0.,24.0
1979-07-20 01:45:07.710 ,4,1,0.,24.0,0.,24.0
1979-07-20 01:45:31.710 ,4,0,0.,24.0,0.,24.0
1979-07-20 01:45:55.710 ,3,1,0.,24.0,0.,24.0
1979-07-20 01:46:19.710 ,3,0,0.,24.0,0.,24.0
1979-07-20 01:46:43.710 ,2,1,0.,24.0,0.,24.0
1979-07-20 01:47:07.710 ,2,0,0.,24.0,0.,24.0
1979-07-20 01:47:31.710 ,1,1,0.,24.0,0.,24.0
1979-07-20 01:47:55.710 ,1,0,0.,24.0,0.,24.0
1979-07-20 01:48:19.710 ,0,1,0.,24.0,0.,24.0
1979-07-20 01:48:43.710 ,0,0,0.,24.0,0.,24.0
1979-07-20 01:49:07.710 ,0,1,0.,24.0,0.,24.0
1979-07-20 01:49:31.710 ,0,0,0.,24.0,0.,24.0
1979-07-20 01:49:55.710 ,1,1,0.,24.0,0.,24.0
1979-07-20 01:50:19.710 ,1,0,0.,24.0,0.,24.0
1979-07-20 01:50:43.710 ,2,1,0.,24.0,0.,24.0
1979-07-20 01:51:07.710 ,2,0,0.,24.0,0.,24.0
1979-07-20 01:51:31.710 ,3,1,0.,24.0,0.,24.0
1979-07-20 01:51:55.710 ,3,0,0.,24.0,0.,24.0
1979-07-20 01:52:19.710 ,4,1,0.,24.0,0.,24.0
1979-07-20 01:52:43.710 ,4,0,0.,24.0,0.,24.0
1979-07-20 01:53:07.710 ,5,1,0.,24.0,0.,24.0
1979-07-20 01:53:31.710 ,5,0,0.,24.0,0.,24.0
1979-07-20 01:54:43.710 ,7,0,0.,24.0,0.,24.0
1979-07-20 01:55:07.710 ,7,0,0.,24.0,0.,24.0
1979-07-20 01:55:31.710 ,3,1,0.,24.0,0.,24.0
1979-07-20 01:55:55.710 ,0,1,0.,24.0,0.,24.0
1979-07-20 01:56:19.710 ,4,1,0.,24.0,0.,24.0
1979-07-20 01:56:43.710 ,7,1,0.,24.0,0.,24.0
1979-07-20 01:57:07.710 ,3,1,0.,24.0,0.,24.0
1979-07-20 01:57:31.710 ,0,1,0.,24.0,0.,24.0
1979-07-20 01:57:55.710 ,4,1,0.,24.0,0.,24.0
1979-07-20 01:58:19.710 ,7,1,0.,24.0,0.,24.0
1979-07-20 01:59:31.710 ,0,0,0.,24.0,0.,24.0
1979-07-20 01:59:55.710 ,7,1,0.,24.0,0.,24.0
1979-07-20 02:01:07.710 ,0,0,0.,24.0,0.,24.0
1979-07-20 02:01:31.710 ,7,1,0.,24.0,0.,24.0
1979-07-20 02:01:55.710 ,3,1,0.,24.0,0.,24.0
1979-07-20 02:02:19.710 ,0,1,0.,24.0,0.,24.0
1979-07-20 02:02:43.710 ,0,0,,0,,0
1979-07-20 02:03:07.710 ,0,0,,0,,0
1979-07-20 02:03:07.710 ,7,1,0.,24.0,0.,24.0
1979-07-20 02:03:31.710 ,3,1,0.,24.0,0.,24.0
1979-07-20 02:03:55.710 ,0,1,0.,24.0,0.,24.0
1979-07-20 02:04:19.710 ,4,1,0.,24.0,0.,24.0
1979-07-20 02:04:43.710 ,7,1,0.,24.0,0.,24.0
1979-07-20 02:05:07.710 ,3,1,0.,24.0,0.,24.0
1979-07-20 02:05:31.710 ,0,1,0.,24.0,0.,24.0
1979-07-20 02:05:55.710 ,0,0,0.,24.0,0.,24.0
1979-07-20 02:06:19.710 ,0,0,0.,24.0,0.,24.0
1979-07-20 02:06:43.710 ,5,1,0.,24.0,0.,24.0
1979-07-20 02:07:07.710 ,5,0,0.,24.0,0.,24.0
1979-07-20 02:07:31.710 ,4,1,0.,24.0,0.,24.0
1979-07-20 02:07:55.710 ,4,0,0.,24.0,0.,24.0
1979-07-20 02:08:19.710 ,3,1,0.,24.0,0.,24.0
1979-07-20 02:08:43.710 ,3,0,0.,24.0,0.,24.0
1979-07-20 02:09:07.710 ,2,1,0.,24.0,0.,24.0
1979-07-20 02:09:31.710 ,2,0,0.,24.0,0.,24.0
1979-07-20 02:09:55.710 ,1,1,0.,24.0,0.,24.0
1979-07-20 02:10:19.710 ,1,0,0.,24.0,0.,24.0
1979-07-20 02:10:43.710 ,0,1,0.,24.0,0.,24.0
1979-07-20 02:11:07.710 ,0,0,0.,24.0,0.,24.0
1979-07-20 02:11:31.710 ,0,1,0.,24.0,0.,24.0
1979-07-20 02:11:55.710 ,0,0,0.,24.0,0.,24.0
1979-07-20 02:12:19.710 ,1,1,0.,24.0,0.,24.0
1979-07-20 02:12:43.710 ,1,0,0.,24.0,0.,24.0
1979-07-20 02:13:07.710 ,2,1,0.,24.0,0.,24.0
1979-07-20 02:13:31.710 ,2,0,0.,24.0,0.,24.0
1979-07-20 02:13:55.710 ,3,1,0.,24.0,0.,24.0
1979-07-20 02:14:19.710 ,3,0,0.,24.0,0.,24.0
1979-07-20 02:14:43.710 ,4,1,0.,24.0,0.,24.0
1979-07-20 02:15:07.710 ,4,0,0.,24.0,0.,24.0
1979-07-20 02:15:31.710 ,5,1,0.,24.0,0.,24.0
1979-07-20 02:15:55.710 ,5,0,0.,24.0,0.,24.0
1979-07-20 02:16:19.710 ,6,1,0.,24.0,0.,24.0
1979-07-20 02:16:43.710 ,6,0,0.,24.0,0.,24.0
1979-07-20 02:17:07.700 ,7,1,0.,24.0,0.,24.0
1979-07-20 02:17:31.710 ,7,0,0.,24.0,0.,24.0
1979-07-20 02:17:55.710 ,7,1,0.,24.0,0.,24.0
1979-07-20 02:18:19.710 ,7,0,0.,24.0,0.,24.0
1979-07-20 02:18:43.710 ,6,1,0.,24.0,0.,24.0
1979-07-20 02:19:07.710 ,6,0,0.,24.0,0.,24.0
1979-07-20 02:19:31.710 ,0,0,,0,,0
1979-07-20 02:19:55.710 ,0,0,,0,,0
1979-07-20 02:20:19.710 ,0,0,,0,,0
1979-07-20 02:20:43.710 ,0,0,,0,,0
1979-07-20 02:22:43.710 ,0,0,0.,24.0,0.,24.0
1979-07-20 02:23:07.710 ,0,0,0.,24.0,0.,24.0
1979-07-20 02:23:31.710 ,0,1,0.,24.0,0.,24.0
1979-07-20 02:23:55.710 ,0,0,0.,24.0,0.,24.0
1979-07-20 02:24:19.710 ,0,1,0.,24.0,0.,24.0
1979-07-20 02:24:43.710 ,0,0,0.,24.0,0.,24.0
1979-07-20 02:25:07.710 ,1,1,0.,24.0,0.,24.0
1979-07-20 02:25:31.710 ,1,0,0.,24.0,0.,24.0
1979-07-20 02:25:55.710 ,2,1,0.,24.0,0.,24.0
1979-07-20 02:26:19.710 ,2,0,0.,24.0,0.,24.0
1979-07-20 02:26:43.710 ,3,1,0.,24.0,0.,24.0
1979-07-20 02:27:07.710 ,3,0,0.,24.0,0.,24.0
1979-07-20 02:27:31.710 ,4,1,0.,24.0,0.,24.0
1979-07-20 02:27:55.710 ,4,0,0.,24.0,0.,24.0
1979-07-20 02:28:19.710 ,5,1,0.,24.0,0.,24.0
1979-07-20 02:28:43.710 ,5,0,0.,24.0,0.,24.0
1979-07-20 02:29:07.710 ,6,1,0.,24.0,0.,24.0
1979-07-20 02:29:31.710 ,6,0,0.,24.0,0.,24.0
1979-07-20 02:29:55.710 ,7,1,0.,24.0,0.,24.0
1979-07-20 02:30:19.710 ,7,0,0.,24.0,0.,24.0
1979-07-20 02:30:43.710 ,7,1,0.,24.0,0.,24.0
1979-07-20 02:31:07.710 ,7,0,0.,24.0,0.,24.0
1979-07-20 02:31:31.710 ,6,1,0.,24.0,0.,24.0
1979-07-20 02:31:55.710 ,6,0,0.,24.0,0.,24.0
1979-07-20 02:32:19.710 ,5,1,0.,24.0,0.,24.0
1979-07-20 02:32:43.710 ,5,0,0.,24.0,0.,24.0
1979-07-20 02:33:07.710 ,4,1,0.,24.0,0.,24.0
1979-07-20 02:33:31.710 ,4,0,0.,24.0,0.,24.0
1979-07-20 02:33:55.710 ,3,1,0.,24.0,0.,24.0
1979-07-20 02:34:19.710 ,3,0,0.,24.0,0.,24.0
1979-07-20 02:34:43.700 ,2,1,0.,24.0,0.,24.0
1979-07-20 02:35:07.700 ,2,0,0.,24.0,0.,24.0
1979-07-20 02:35:31.700 ,1,1,0.,24.0,0.,24.0
1979-07-20 02:35:55.700 ,1,0,0.,24.0,0.,24.0
1979-07-20 02:36:19.700 ,0,1,0.,24.0,0.,24.0
1979-07-20 02:36:43.700 ,0,0,0.,24.0,0.,24.0
1979-07-20 02:37:07.700 ,0,1,0.,24.0,0.,24.0
1979-07-20 02:37:31.700 ,0,0,0.,24.0,0.,24.0
1979-07-20 02:37:55.700 ,1,1,0.,24.0,0.,24.0
1979-07-20 02:38:19.700 ,1,0,0.,24.0,0.,24.0
1979-07-20 02:38:43.700 ,2,1,0.,24.0,0.,24.0
1979-07-20 02:39:07.700 ,2,0,0.,24.0,0.,24.0
1979-07-20 02:39:31.700 ,3,1,0.,24.0,0.,24.0
1979-07-20 02:39:55.700 ,3,0,0.,24.0,0.,24.0
1979-07-20 02:40:19.700 ,4,1,0.,24.0,0.,24.0
1979-07-20 02:40:43.700 ,4,0,0.,24.0,0.,24.0
1979-07-20 02:41:07.700 ,5,1,0.,24.0,0.,24.0
1979-07-20 02:41:31.700 ,5,0,0.,24.0,0.,24.0
1979-07-20 02:41:55.700 ,6,1,0.,24.0,0.,24.0
1979-07-20 02:42:19.700 ,6,0,0.,24.0,0.,24.0
1979-07-20 02:42:43.700 ,7,0,0.,24.0,0.,24.0
1979-07-20 02:43:07.700 ,7,0,0.,24.0,0.,24.0
1979-07-20 02:43:31.700 ,3,1,0.,24.0,0.,24.0
1979-07-20 02:43:55.700 ,0,1,0.,24.0,0.,24.0
1979-07-20 02:44:19.700 ,4,1,0.,24.0,0.,24.0
1979-07-20 02:44:43.700 ,7,1,0.,24.0,0.,24.0
1979-07-20 02:45:07.700 ,3,1,0.,24.0,0.,24.0
1979-07-20 02:45:31.700 ,0,1,0.,24.0,0.,24.0
1979-07-20 02:45:55.700 ,4,1,0.,24.0,0.,24.0
1979-07-20 02:46:19.700 ,7,1,0.,24.0,0.,24.0
1979-07-20 02:46:43.700 ,3,1,0.,24.0,0.,24.0
1979-07-20 02:47:07.700 ,0,1,0.,24.0,0.,24.0
1979-07-20 02:47:31.700 ,4,1,0.,24.0,0.,24.0
1979-07-20 02:47:55.700 ,7,1,0.,24.0,0.,24.0
1979-07-20 02:48:19.700 ,3,1,0.,24.0,0.,24.0
1979-07-20 02:48:43.700 ,0,1,0.,24.0,0.,24.0
1979-07-20 02:49:07.700 ,4,1,0.,24.0,0.,24.0
1979-07-20 02:49:31.700 ,7,1,0.,24.0,0.,24.0
1979-07-20 02:49:55.700 ,3,1,0.,24.0,0.,24.0
1979-07-20 02:50:19.700 ,0,1,0.,24.0,0.,24.0
1979-07-20 02:50:43.700 ,4,1,0.,24.0,1.,24.0
1979-07-20 02:51:07.700 ,7,1,0.,24.0,0.,24.0
1979-07-20 02:51:31.700 ,3,1,0.,24.0,0.,24.0
1979-07-20 02:51:55.700 ,0,1,0.,24.0,0.,24.0
1979-07-20 02:52:19.700 ,4,1,0.,24.0,0.,24.0
1979-07-20 02:52:43.700 ,7,1,0.,24.0,0.,24.0
1979-07-20 02:53:07.700 ,3,1,0.,24.0,0.,24.0
1979-07-20 02:53:31.700 ,0,1,0.,24.0,0.,24.0
1979-07-20 02:53:55.700 ,0,0,0.,24.0,0.,24.0
1979-07-20 02:54:19.700 ,0,0,0.,24.0,0.,24.0
1979-07-20 02:54:43.700 ,5,1,0.,24.0,0.,24.0
1979-07-20 02:55:07.700 ,5,0,0.,24.0,0.,24.0
1979-07-20 02:55:31.700 ,4,1,0.,24.0,0.,24.0
1979-07-20 02:55:55.700 ,4,0,0.,24.0,0.,24.0
1979-07-20 02:56:19.700 ,3,1,0.,24.0,0.,24.0
1979-07-20 02:56:43.700 ,3,0,0.,24.0,0.,24.0
1979-07-20 02:57:07.700 ,2,1,0.,24.0,0.,24.0
1979-07-20 02:57:31.700 ,2,0,0.,24.0,0.,24.0
1979-07-20 02:57:55.700 ,1,1,0.,24.0,0.,24.0
1979-07-20 02:58:19.700 ,1,0,0.,24.0,0.,24.0
1979-07-20 02:58:43.700 ,0,1,0.,24.0,0.,24.0
1979-07-20 02:59:07.700 ,0,0,0.,24.0,0.,24.0
1979-07-20 02:59:31.700 ,0,1,0.,24.0,0.,24.0
1979-07-20 02:59:55.700 ,0,0,0.,24.0,0.,24.0
1979-07-20 03:00:19.700 ,1,1,0.,24.0,0.,24.0
